Date String (YYYY-MM-DD hh:mm:ss) UTC,Instrument flags,absolute air pressure of the measurement (hPa),sample flow rate (lpm),inlet stack bypass flow (lpm),air temperature of the measurement (°C),ambient temperature measured by the external sensor (°C),aerosol sample conditioner tube jacket temperature (°C),OPC LED temperature (°C),internal box temperature (°C),relative humidity of the measurement (%),span deviation,mass concentration of particles derived from Lorenz-Mie calculation of OPC scattering (μg/m³),mass concentration of particles derived from Lorenz-Mie calculation of OPC scattering (μg/m³),mass concentration of particles derived from Lorenz-Mie calculation of OPC scattering (μg/m³)
DateTimeUTC,F1_M11,P_M11,Q1_M11,Q2_M11,T1_M11,T2_M11,T3_M11,T4_M11,T5_M11,U1_M11,ZSPAN_M11,X0_M11,X2_M11,X1_M11
2024-04-09 14:00:00,SystemResetWarning,0828.6,5.00,000.00,019.8,019.4,000.0,028.2,021.6,017.6,0000.0,0011.41,0002.46,0001.74
2024-04-09 14:01:00,SystemResetWarning,0828.6,5.00,000.00,019.8,019.4,000.0,028.2,021.6,017.5,0000.0,0012.20,0002.44,0001.75
2024-04-09 14:02:00,SystemResetWarning,0828.6,5.00,000.00,019.9,019.4,000.0,028.2,021.6,017.2,0000.0,0011.89,0002.45,0001.76
2024-04-09 14:03:00,SystemResetWarning,0828.6,4.99,000.00,019.9,019.4,000.0,028.2,021.6,017.6,0000.0,0011.37,0002.53,0001.79
2024-04-09 14:04:00,SystemResetWarning,0828.5,5.00,000.00,019.9,019.4,000.0,028.2,021.6,017.1,0000.0,0011.63,0002.55,0001.79
2024-04-09 14:05:00,SystemResetWarning,0828.5,5.00,000.00,019.9,019.5,000.0,028.2,021.7,017.5,0000.0,0010.76,0002.57,0001.80
2024-04-09 14:06:00,SystemResetWarning,0828.6,5.01,000.00,019.9,019.5,000.0,028.2,021.6,017.2,0000.0,0009.66,0002.63,0001.80
2024-04-09 14:07:00,SystemResetWarning,0828.6,5.01,000.00,019.9,019.5,000.0,028.3,021.7,017.1,0000.0,0008.88,0002.65,0001.81
2024-04-09 14:08:00,SystemResetWarning,0828.6,4.99,000.00,019.9,019.5,000.0,028.3,021.7,017.2,0000.0,0010.13,0002.64,0001.83
2024-04-09 14:09:00,SystemResetWarning,0828.6,4.99,000.00,019.9,019.5,000.0,028.3,021.7,017.0,0000.0,0010.41,0002.64,0001.84
2024-04-09 14:10:00,SystemResetWarning,0828.5,5.00,000.00,019.9,019.5,000.0,028.3,021.7,017.2,0000.0,0010.55,0002.64,0001.84
2024-04-09 14:11:00,SystemResetWarning,0828.5,5.00,000.00,020.0,019.5,000.0,028.3,021.7,017.2,0000.0,0010.63,0002.60,0001.83
2024-04-09 14:12:00,SystemResetWarning,0828.5,5.01,000.00,020.0,019.5,000.0,028.3,021.7,017.3,0000.0,0009.81,0002.65,0001.84
2024-04-09 14:13:00,SystemResetWarning,0828.6,5.01,000.00,020.0,019.5,000.0,028.3,021.7,017.6,0000.0,0009.15,0002.65,0001.84
2024-04-09 14:14:00,SystemResetWarning,0828.5,5.00,000.00,020.0,019.6,000.0,028.3,021.7,018.1,0000.0,0009.12,0002.62,0001.85
2024-04-09 14:15:00,SystemResetWarning,0828.5,5.00,000.00,020.0,019.6,000.0,028.3,021.8,018.3,0000.0,0008.74,0002.62,0001.85
2024-04-09 14:16:00,SystemResetWarning,0828.4,4.99,000.00,020.0,019.6,000.0,028.3,021.8,018.1,0000.0,0007.94,0002.63,0001.85
2024-04-09 14:17:00,SystemResetWarning,0828.4,4.99,000.00,020.0,019.6,000.0,028.3,021.8,018.1,0000.0,0008.08,0002.61,0001.85
2024-04-09 14:18:00,SystemResetWarning,0828.4,5.00,000.00,020.0,019.6,000.0,028.3,021.8,018.1,0000.0,0008.34,0002.63,0001.84
2024-04-09 14:19:00,SystemResetWarning,0828.4,5.01,000.00,020.0,019.6,000.0,028.3,021.8,017.6,0000.0,0007.72,0002.61,0001.84
2024-04-09 14:20:00,SystemResetWarning,0828.4,5.00,000.00,020.0,019.6,000.0,028.4,021.8,017.8,0000.0,0006.76,0002.62,0001.83
2024-04-09 14:21:00,SystemResetWarning,0828.4,5.00,000.00,020.0,019.6,000.0,028.4,021.8,017.9,0000.0,0007.39,0002.66,0001.83
2024-04-09 14:22:00,SystemResetWarning,0828.4,5.00,000.00,020.1,019.6,000.0,028.4,021.8,017.4,0000.0,0007.38,0002.73,0001.86
2024-04-09 14:23:00,SystemResetWarning,0828.4,5.00,000.00,020.1,019.7,000.0,028.4,021.8,017.9,0000.0,0007.83,0002.72,0001.87
2024-04-09 14:24:00,SystemResetWarning,0828.4,5.00,000.00,020.1,019.7,000.0,028.4,021.8,018.0,0000.0,0007.89,0002.73,0001.88
2024-04-09 14:25:00,SystemResetWarning,0828.4,5.00,000.00,020.1,019.7,000.0,028.4,021.8,017.4,0000.0,0008.01,0002.75,0001.90
2024-04-09 14:26:00,SystemResetWarning,0828.4,5.00,000.00,020.1,019.7,000.0,028.4,021.8,016.6,0000.0,0008.26,0002.76,0001.92
2024-04-09 14:27:00,SystemResetWarning,0828.4,4.99,000.00,020.1,019.7,000.0,028.4,021.9,017.1,0000.0,0008.19,0002.78,0001.93
2024-04-09 14:28:00,SystemResetWarning,0828.4,5.00,000.00,020.1,019.7,000.0,028.4,021.9,017.7,0000.0,0008.14,0002.81,0001.95
2024-04-09 14:29:00,SystemResetWarning,0828.4,4.99,000.00,020.1,019.7,000.0,028.4,021.9,016.8,0000.0,0008.53,0002.80,0001.96
2024-04-09 14:30:00,SystemResetWarning,0828.4,5.00,000.00,020.1,019.7,000.0,028.4,021.9,017.3,0000.0,0008.31,0002.78,0001.97
2024-04-09 14:31:00,SystemResetWarning,0828.4,5.00,000.00,020.2,019.8,000.0,028.4,021.9,018.0,0000.0,0008.38,0002.79,0001.97
2024-04-09 14:32:00,SystemResetWarning,0828.4,5.00,000.00,020.2,019.8,000.0,028.5,021.9,017.3,0000.0,0007.99,0002.76,0001.97
2024-04-09 14:33:00,SystemResetWarning,0828.4,5.01,000.00,020.2,019.8,000.0,028.5,021.9,017.3,0000.0,0007.58,0002.71,0001.96
2024-04-09 14:34:00,SystemResetWarning,0828.4,5.00,000.00,020.2,019.8,000.0,028.5,021.9,017.1,0000.0,0006.89,0002.72,0001.96
2024-04-09 14:35:00,SystemResetWarning,0828.4,4.99,000.00,020.2,019.8,000.0,028.5,021.9,017.8,0000.0,0007.64,0002.73,0001.96
2024-04-09 14:36:00,SystemResetWarning,0828.4,5.00,000.00,020.2,019.8,000.0,028.5,021.9,017.7,0000.0,0007.73,0002.70,0001.94
2024-04-09 14:37:00,SystemResetWarning,0828.3,5.01,000.00,020.2,019.8,000.0,028.5,021.9,017.4,0000.0,0007.27,0002.65,0001.92
2024-04-09 14:38:00,SystemResetWarning,0828.4,5.00,000.00,020.2,019.8,000.0,028.5,022.0,017.2,0000.0,0007.66,0002.64,0001.89
2024-04-09 14:39:00,SystemResetWarning,0828.4,4.99,000.00,020.2,019.9,000.0,028.5,022.0,017.4,0000.0,0008.10,0002.55,0001.86
2024-04-09 14:40:00,SystemResetWarning,0828.3,5.00,000.00,020.3,019.9,000.0,028.5,022.0,017.3,0000.0,0007.51,0002.52,0001.83
2024-04-09 14:41:00,SystemResetWarning,0828.3,5.02,000.00,020.3,019.9,000.0,028.5,022.0,017.2,0000.0,0007.93,0002.55,0001.81
2024-04-09 14:42:00,SystemResetWarning,0828.3,5.00,000.00,020.3,019.9,000.0,028.6,022.0,017.3,0000.0,0007.91,0002.52,0001.79
2024-04-09 14:43:00,SystemResetWarning,0828.2,5.00,000.00,020.3,019.9,000.0,028.6,022.0,017.5,0000.0,0009.09,0002.55,0001.77
2024-04-09 14:44:00,SystemResetWarning,0828.2,4.99,000.00,020.3,019.9,000.0,028.6,022.1,017.6,0000.0,0009.82,0002.51,0001.74
2024-04-09 14:45:00,SystemResetWarning,0828.2,4.99,000.00,020.3,019.9,000.0,028.6,022.0,017.7,0000.0,0010.31,0002.49,0001.72
2024-04-09 14:46:00,SystemResetWarning,0828.2,5.00,000.00,020.3,019.9,000.0,028.6,022.1,017.4,0000.0,0009.75,0002.46,0001.70
2024-04-09 14:47:00,SystemResetWarning,0828.2,5.00,000.00,020.3,019.9,000.0,028.6,022.1,017.2,0000.0,0009.54,0002.41,0001.66
2024-04-09 14:48:00,SystemResetWarning,0828.1,5.01,000.00,020.3,019.9,000.0,028.6,022.1,017.4,0000.0,0009.60,0002.43,0001.62
2024-04-09 14:49:00,SystemResetWarning,0828.1,5.00,000.00,020.4,019.9,000.0,028.6,022.1,017.0,0000.0,0009.23,0002.43,0001.59
2024-04-09 14:50:00,SystemResetWarning,0828.1,4.99,000.00,020.4,020.0,000.0,028.6,022.1,017.1,0000.0,0008.76,0002.44,0001.60
2024-04-09 14:51:00,SystemResetWarning,0828.1,5.00,000.00,020.4,020.0,000.0,028.6,022.1,017.7,0000.0,0008.90,0002.44,0001.59
2024-04-09 14:52:00,SystemResetWarning,0828.1,5.00,000.00,020.4,020.0,000.0,028.7,022.1,018.0,0000.0,0009.42,0002.47,0001.59
2024-04-09 14:53:00,SystemResetWarning,0828.1,4.99,000.00,020.4,020.0,000.0,028.7,022.1,017.7,0000.0,0010.13,0002.60,0001.61
2024-04-09 14:54:00,SystemResetWarning,0828.1,5.00,000.00,020.4,020.0,000.0,028.7,022.2,017.6,0000.0,0010.02,0002.61,0001.61
2024-04-09 14:55:00,SystemResetWarning,0828.0,5.01,000.00,020.4,020.0,000.0,028.7,022.2,017.5,0000.0,0009.95,0002.71,0001.63
2024-04-09 14:56:00,SystemResetWarning,0828.0,5.00,000.00,020.5,020.0,000.0,028.7,022.2,017.6,0000.0,0009.96,0002.87,0001.63
2024-04-09 14:57:00,SystemResetWarning,0828.1,5.00,000.00,020.5,020.1,000.0,028.7,022.2,017.5,0000.0,0010.86,0003.00,0001.66
2024-04-09 14:58:00,SystemResetWarning,0828.1,5.00,000.00,020.5,020.1,000.0,028.7,022.2,017.3,0000.0,0012.25,0003.15,0001.70
2024-04-09 14:59:00,SystemResetWarning,0828.1,5.00,000.00,020.5,020.1,000.0,028.7,022.2,017.5,0000.0,0012.83,0003.19,0001.74
